[[{"header":{"parameterUnit":"m.s-1","parameterCategory":1,"la1":30.2991,"la2":30.254,"lo1":-89.0895,"lo2":-89.0444,"dy":0.0017,"dx":0.0017,"nx":28,"ny":28,"refTime":"2023-08-15T09:00:00:Z","depth":0,"parameterNumber":2,"parameterNumberName":"U-component_of_WINDS"},"data":[0,0,0,0,0,0,0,0,0,0,0,0,0,0,0,0,0,0,0,0,0,0,0,0,0,0,0,0,0,0,0,0,0,0,0,0,0,0,0,0,0,0,0,0,0,0,0,0,0,0,0,0,0,0,0,0,0,0,3.4103,3.4104,0,3.417,3.4171,3.4172,3.4136,3.4134,3.4132,3.413,3.4205,3.4209,3.4212,0,0,0,0,0,0,0,0,0,0,0,0,0,3.3953,3.3956,3.4103,3.4104,3.4105,3.417,3.4171,3.4172,3.4136,3.4134,3.4132,3.4129,3.4204,3.4208,3.4213,0,0,0,0,0,0,0,0,0,0,0,0,0,3.4019,3.3956,3.4103,3.4095,3.4095,3.417,3.4171,3.4172,3.4136,3.4134,3.4131,3.4128,3.4202,3.4208,3.4213,3.4302,0,0,3.423,3.4232,0,0,0,0,0,0,0,0,3.4015,3.4024,3.4095,3.4095,3.4095,3.4142,3.4145,3.4216,3.4137,3.4121,3.413,3.4127,3.4187,3.4193,3.4212,3.4306,3.4309,3.4231,3.4234,3.4236,3.4238,0,0,0,0,0,0,0,3.4011,3.4021,3.413,3.4096,3.4097,3.409,3.4097,3.4158,3.4169,3.4122,3.4119,3.4128,3.4186,3.4207,3.4213,3.431,3.423,3.4235,3.4239,3.4241,3.4485,3.4488,0,0,0,0,0,0,3.4005,3.4018,3.4128,3.4132,3.4047,3.4095,3.4102,3.413,3.4168,3.4171,3.413,3.4126,3.4199,3.4207,3.4216,3.4326,3.4236,3.4241,3.4245,3.4482,3.4486,3.4489,0,0,0,0,0,0,3.4002,3.4016,3.4125,3.4074,3.4088,3.4101,3.4132,3.4132,3.4153,3.4173,3.4176,3.4149,3.4197,3.4208,3.4282,3.4328,3.4244,3.4249,3.4478,3.4483,3.4488,3.4545,0,0,0,0,0,0,3.3998,3.4015,3.4047,3.4075,3.409,3.4188,3.4134,3.4136,3.4162,3.4157,3.4192,3.4195,3.4195,3.4274,3.4287,3.4334,3.4253,3.4474,3.448,3.4486,3.4539,3.4551,3.4561,0,0,0,0,0,3.3993,3.4061,3.4048,3.4062,3.413,3.419,3.4199,3.4197,3.4165,3.42,3.4213,3.4194,3.432,3.4281,3.4296,3.4346,3.4471,3.4479,3.4486,3.4534,3.4548,3.4561,0,0,0,0,0,0,3.4039,3.4064,3.4051,3.4129,3.4158,3.4184,3.4226,3.4212,3.4251,3.4245,3.4242,3.4251,3.4328,3.4344,3.43,3.4436,3.4391,3.4402,3.4423,3.4437,3.4448,3.4444,3.4258,0,0,0,0,0,3.4058,3.4102,3.4122,3.419,3.4204,3.4213,3.4239,3.4235,3.4265,3.4277,3.4296,3.4328,3.4376,3.4407,3.4451,3.454,3.455,3.4582,3.4593,3.4602,3.4612,3.4665,3.468,3.4513,3.4513,3.4512,0,0,3.4098,3.4117,3.4145,3.42,3.4221,3.427,3.4223,3.4276,3.4313,3.4286,3.4357,3.4372,3.4408,3.4491,3.4528,3.4506,3.466,3.4611,3.4618,3.4623,3.4674,3.4689,3.4704,3.4517,3.4517,3.4516,0,0,3.4197,3.4214,3.4274,3.4296,3.4329,3.4335,3.4349,3.4378,3.4387,3.4457,3.4439,3.4484,3.4564,3.4592,3.4616,3.4728,3.4713,3.4743,3.4802,3.4853,3.4866,3.4878,3.4921,3.4937,3.4752,3.4752,3.4752,0,3.4243,3.4313,3.4307,3.4362,3.4388,3.4363,3.4426,3.4449,3.4496,3.4516,3.449,3.4592,3.4614,3.4705,3.4733,3.4752,3.4771,3.474,3.4864,3.4876,3.4887,3.4929,3.4945,3.4756,3.4755,3.4755,3.4755,0,3.4371,3.442,3.4465,3.451,3.454,3.4599,3.4604,3.4637,3.463,3.464,3.4714,3.474,3.4791,3.4811,3.4806,3.4903,3.4889,3.4864,3.4819,3.4907,3.4946,3.4962,3.4761,3.476,3.4759,3.4758,0,0,3.4501,3.4541,3.4558,3.458,3.4615,3.4655,3.4714,3.4762,3.4791,3.4825,3.4877,3.4946,3.4924,3.4952,3.495,3.4994,3.5086,3.4964,3.4965,3.4989,3.5198,3.5219,3.5237,3.5075,3.5078,3.508,3.5197,0,3.4604,3.4705,3.4702,3.4797,3.4845,3.4824,3.4876,3.4905,3.4916,3.496,3.4973,3.5024,3.4989,3.5006,3.5049,3.5065,3.5128,3.5056,3.5127,3.5129,3.5121,3.5257,3.5278,3.5387,3.5211,3.5214,3.5216,0,3.4738,3.4776,3.4876,3.4907,3.4927,3.4973,3.5019,3.506,3.5094,3.5099,3.5131,3.5122,3.5186,3.5138,3.5227,3.5179,3.5208,3.522,3.5225,3.5233,3.518,3.5272,3.5421,3.5438,3.5239,3.5237,3.5236,0,3.4828,3.4902,3.4973,3.4991,3.5028,3.5062,3.508,3.511,3.5141,3.5181,3.5202,3.5249,3.5277,3.5315,3.5321,3.5285,3.5413,3.5364,3.5422,3.5422,3.5452,3.545,3.561,3.5465,3.5465,3.5465,3.5464,0,3.4945,3.5008,3.5014,3.5057,3.5129,3.5125,3.5197,3.5211,3.524,3.5288,3.5273,3.5319,3.5322,3.5371,3.5376,3.5452,3.5463,3.5472,3.5473,3.5475,3.5474,3.5496,3.5489,3.5469,3.5468,3.5467,3.5466,0,3.5057,3.5063,3.5139,3.5168,3.5177,3.5229,3.5255,3.5298,3.5307,3.5369,3.5384,3.54,3.5456,3.5465,3.5532,3.5536,3.5627,3.5619,3.5616,3.5616,3.5674,3.567,3.5855,3.5881,3.5717,3.5718,3.572,0,3.5134,3.5182,3.5216,3.5246,3.5265,3.5315,3.5345,3.5345,3.5378,3.5422,3.5461,3.5516,3.556,3.5652,3.5671,3.5723,3.5719,3.578,3.5726,3.5728,3.5724,3.5722,3.5729,3.5791,3.5793,3.5794,3.5796,0,3.527,3.527,3.5314,3.536,3.5397,3.5433,3.5468,3.5494,3.5499,3.5538,3.5595,3.5629,3.5697,3.5753,3.5805,3.5826,3.5814,3.5812,3.5829,3.5833,3.583,3.5836,3.5647,3.5808,3.5807,3.5806,3.5805,3.5805,3.5368,3.5411,3.5443,3.5493,3.5519,3.5552,3.5595,3.5609,3.5656,3.5711,3.5708,3.5772,3.5808,3.5876,3.5901,3.5953,3.5934,3.5957,3.5963,3.597,3.5977,3.5819,3.5962,3.5962,3.5961,3.5961,3.5961,0,3.5507,3.5526,3.5572,3.562,3.5661,3.5642,3.568,3.5717,3.5772,3.5806,3.5849,3.5917,3.5972,3.5995,3.605,3.6088,3.6084,3.6102,3.6101,3.6107,3.599,3.5971,3.6105,3.6105,3.6105,3.6105,3.6105,3.6105,3.5583,3.5656,3.5661,3.5748,3.5767,3.5828,3.5852,3.5884,3.5911,3.5986,3.6031,3.6045,3.6076,3.6133,3.6184,3.619,3.6213,3.6235,3.6239,3.6129,3.6115,3.6101,3.6084,3.6239,3.6239,3.6352,3.6353,3.6354]},{"header":{"parameterUnit":"m.s-1","parameterCategory":1,"la1":30.2991,"la2":30.254,"lo1":-89.0895,"lo2":-89.0444,"dy":0.0017,"dx":0.0017,"nx":28,"ny":28,"refTime":"2023-08-15T09:00:00:Z","depth":0,"parameterNumber":3,"parameterNumberName":"V-component_of_WINDS"},"data":[0,0,0,0,0,0,0,0,0,0,0,0,0,0,0,0,0,0,0,0,0,0,0,0,0,0,0,0,0,0,0,0,0,0,0,0,0,0,0,0,0,0,0,0,0,0,0,0,0,0,0,0,0,0,0,0,0,0,1.9893,1.9893,0,1.9965,1.9965,1.9966,1.9965,1.9964,1.9963,1.9962,2.0034,2.0036,2.0039,0,0,0,0,0,0,0,0,0,0,0,0,0,1.9749,1.9752,1.9893,1.9893,1.9894,1.9964,1.9965,1.9966,1.9965,1.9964,1.9963,1.9962,2.0033,2.0036,2.0039,0,0,0,0,0,0,0,0,0,0,0,0,0,1.9815,1.9753,1.9892,1.9902,1.9904,1.9964,1.9965,1.9967,1.9965,1.9964,1.9962,1.9961,2.0032,2.0036,2.004,2.0095,0,0,2.0053,2.0054,0,0,0,0,0,0,0,0,1.9812,1.9821,1.99,1.9902,1.9904,1.9954,1.9941,2.0009,1.9966,1.9942,1.9962,1.996,2.0008,2.0014,2.0031,2.0098,2.0101,2.0053,2.0056,2.0057,2.0059,0,0,0,0,0,0,0,1.9807,1.9817,1.9921,1.9901,1.9903,1.9901,1.9909,1.9954,1.9982,1.9944,1.9944,1.9953,2.0009,2.0027,2.0032,2.0102,2.0053,2.0057,2.0059,2.0061,2.0213,2.0214,0,0,0,0,0,0,1.9801,1.9814,1.9919,1.9923,1.9853,1.9905,1.9914,1.9939,1.9982,1.9987,1.9954,1.9952,2.002,2.0028,2.0035,2.0099,2.0057,2.0061,2.0064,2.0211,2.0213,2.0215,0,0,0,0,0,0,1.9798,1.981,1.9916,1.9868,1.9882,1.9909,1.9938,1.9942,1.996,1.9989,1.9994,1.9967,2.0019,2.0029,2.0079,2.0101,2.0063,2.0067,2.0209,2.0212,2.0214,2.0229,0,0,0,0,0,0,1.9794,1.9809,1.9832,1.9869,1.9884,1.996,1.9939,1.9944,1.9967,1.9966,2.0003,2.0008,2.0019,2.0073,2.0083,2.0106,2.007,2.0208,2.021,2.0213,2.0226,2.0231,2.0235,0,0,0,0,0,1.9789,1.9834,1.9833,1.9846,1.9913,1.9961,1.997,1.9983,1.9969,1.999,2.0009,2.0007,2.0097,2.0078,2.0089,2.0114,2.0206,2.021,2.0213,2.0224,2.023,2.0235,0,0,0,0,0,0,1.9799,1.9839,1.9839,1.9897,1.9926,1.9961,1.9989,1.9989,2.0022,2.0019,2.0033,2.0041,2.009,2.0108,2.0085,2.0167,2.015,2.0156,2.0154,2.016,2.0165,2.0159,2.0074,0,0,0,0,0,1.9808,1.9844,1.9877,1.9926,1.994,1.9962,1.9984,1.9991,2.0021,2.0033,2.0055,2.0083,2.0117,2.014,2.0174,2.0229,2.0235,2.0251,2.0256,2.026,2.0264,2.029,2.0297,2.0226,2.0226,2.0226,0,0,1.9827,1.9853,1.9876,1.9928,1.9951,1.9987,1.9972,2.0012,2.0038,2.0038,2.0086,2.0103,2.0135,2.0187,2.0211,2.0203,2.0285,2.0264,2.0267,2.0269,2.0294,2.0301,2.0307,2.0228,2.0228,2.0227,0,0,1.9879,1.9904,1.9945,1.9968,2.0003,2.0016,2.0026,2.0061,2.0072,2.012,2.012,2.015,2.0211,2.0232,2.0251,2.0308,2.0305,2.0318,2.0342,2.0367,2.0373,2.0378,2.0395,2.0401,2.0323,2.0323,2.0323,0,1.9898,1.9953,1.9966,2.0005,2.0026,2.0028,2.0068,2.009,2.0133,2.0147,2.0138,2.0211,2.0233,2.0287,2.0301,2.0317,2.0326,2.0314,2.0371,2.0376,2.0381,2.0397,2.0404,2.0324,2.0324,2.0324,2.0324,0,1.9973,2.0011,2.0039,2.0081,2.0106,2.0145,2.0162,2.0185,2.0189,2.0203,2.025,2.0276,2.0313,2.0327,2.0332,2.0382,2.0375,2.0368,2.0351,2.0389,2.0404,2.0411,2.0326,2.0325,2.0325,2.0325,0,0,2.0034,2.008,2.009,2.0107,2.0144,2.0173,2.0211,2.0247,2.0265,2.0295,2.0325,2.0374,2.0367,2.0388,2.0395,2.0418,2.0457,2.0408,2.0409,2.0414,2.0509,2.0512,2.0519,2.0456,2.0457,2.0458,2.0505,0,2.0088,2.0156,2.0167,2.0226,2.0259,2.026,2.0292,2.0317,2.033,2.0359,2.0374,2.0407,2.0397,2.0409,2.0432,2.0447,2.0475,2.0444,2.0481,2.0483,2.0471,2.0528,2.0532,2.0575,2.0511,2.0512,2.0513,0,2.0161,2.0191,2.0253,2.0281,2.0296,2.0325,2.0357,2.0385,2.0412,2.042,2.0442,2.0446,2.0482,2.0464,2.0512,2.0491,2.0506,2.0516,2.0518,2.052,2.0499,2.0529,2.059,2.0595,2.0523,2.0523,2.0522,0,2.0195,2.0251,2.0295,2.031,2.0346,2.0365,2.0381,2.0406,2.0426,2.0454,2.0466,2.0498,2.0515,2.0538,2.0549,2.0535,2.0596,2.0579,2.0601,2.0601,2.0613,2.0612,2.0674,2.0627,2.0627,2.0626,2.0626,0,2.0253,2.029,2.031,2.0337,2.0377,2.0388,2.0428,2.0442,2.0465,2.0492,2.0495,2.052,2.0534,2.0561,2.057,2.0607,2.0615,2.062,2.0622,2.0619,2.0618,2.0629,2.0625,2.0628,2.0628,2.0627,2.0627,0,2.0298,2.0314,2.036,2.039,2.0398,2.0426,2.045,2.0474,2.0486,2.0521,2.053,2.0549,2.058,2.0593,2.0633,2.0638,2.0679,2.068,2.067,2.067,2.0691,2.0688,2.0761,2.0769,2.0718,2.0718,2.0719,0,2.0333,2.0362,2.0393,2.0412,2.0428,2.0458,2.0478,2.0489,2.0509,2.054,2.056,2.0591,2.0617,2.0667,2.0683,2.0712,2.0711,2.0735,2.0716,2.0711,2.0708,2.0706,2.0707,2.0738,2.0738,2.0739,2.0739,0,2.0393,2.0398,2.0427,2.0457,2.048,2.0505,2.0529,2.0544,2.0558,2.058,2.0612,2.0632,2.0671,2.0701,2.073,2.0744,2.0743,2.0745,2.0751,2.0748,2.074,2.0742,2.0677,2.0743,2.0743,2.0742,2.0742,2.0742,2.0432,2.0455,2.048,2.0511,2.053,2.0552,2.0575,2.0589,2.0616,2.0649,2.0654,2.0687,2.071,2.0749,2.0764,2.0788,2.0782,2.0792,2.0794,2.0796,2.0796,2.0737,2.0794,2.0794,2.0794,2.0794,2.0794,0,2.0489,2.0504,2.0532,2.0565,2.0588,2.0586,2.0611,2.063,2.066,2.0682,2.0706,2.0741,2.0769,2.0787,2.0815,2.0831,2.0831,2.0838,2.0836,2.0838,2.0801,2.0792,2.0837,2.0837,2.0837,2.0837,2.0837,2.0837,2.0521,2.0559,2.0567,2.0614,2.0629,2.0662,2.0676,2.0695,2.0712,2.0751,2.0774,2.0785,2.0805,2.0833,2.0858,2.0863,2.0872,2.0878,2.0882,2.0846,2.0842,2.0837,2.0828,2.0881,2.0881,2.0917,2.0917,2.0917]}]]